User: anonymous   Login
Location: Fort Wayne
(41.1310°N, 85.1290°W)
Time: 05:43:16
(UTC-04:00)
Language:

Helios 1B - Orbit

View from above orbital plane
View from above orbital plane
View from above satellite
View from above satellite

Ground track
Ground track

The orbit data is extracted from the following two-line orbital elements,

1 25977U 99064A   16212.81994702  .00000137  00000-0  24138-4 0  9993
2 25977  98.1376 312.7997 0000707 157.5323 202.5921 14.82086843896406
Epoch (UTC): 30 July 2016 19:40:43
Eccentricity: 0.0000707
inclination: 98.1376°
perigee height: 622 km
apogee height: 623 km
right ascension of ascending node: 312.7997°
argument of perigee: 157.5323°
revolutions per day: 14.82086843
mean anomaly at epoch: 202.5921°
orbit number at epoch: 89640

The dashed part of the orbit path shows where the satellite is in the earth's shadow,  

DLR